Location: Bogis-Bossey
(46.3500°N, 6.1667°E)
Time: 18:33:07
(UTC+00:00)

Cosmos 2034 Rocket - Pass Details

Date: 17 August 2022
Orbit: 959 x 999 km, 82.9° (Epoch: 30 September)

Event Time Altitude Azimuth Distance (km) Brightness Sun altitude
Rises 21:34:40 0° 354° (N) 3,668 8.0 -24.2°
Reaches altitude 10° 21:37:15 10° 359° (N) 2,722 7.1 -24.4°
Maximum altitude 21:43:21 54° 77° (ENE) 1,177 4.2 -25.0°
Enters shadow 21:44:17 50° 107° (ESE) 1,236 4.2 -25.1°
